Location: Newark
(34.9500°N, 139.9667°E)
Time: 16:47:07
(UTC+00:00)

Vanguard 2 Rocket - Pass Details

Date: 11 December 2019
Orbit: 554 x 3326 km, 32.9° (Epoch: 26 January)

Event Time Altitude Azimuth Distance (km) Brightness Sun altitude
Rises 10:54:35 0° 269° (W) 5,871 11.9 -41.3°
Reaches altitude 10° 10:59:09 10° 268° (W) 4,411 11.0 -42.2°
Enters shadow 11:07:14 48° 260° (W) 1,799 8.5 -43.9°
Maximum altitude 11:10:02 78° 185° (S) 1,259 - -44.5°
Drops below altitude 10° 11:16:02 10° 99° (E) 2,528 - -45.7°
Sets 11:18:01 0° 98° (E) 3,262 - -46.1°
